,MapDate,Name,None,D0,D1,D2,D3,D4,ValidStart,ValidEnd,StatisticFormatID,SUMAREA,DSCI,RANK
0,20240625,Intermountain West DEWS,37.99,44.05,14.46,2.68,0.82,0.0,2024-06-25,2024-07-01,2,17.96,84.29,921.0
1,20240618,Intermountain West DEWS,45.87,34.06,16.35,2.91,0.82,0.0,2024-06-18,2024-06-24,2,20.08,78.77,967.0
2,20240611,Intermountain West DEWS,48.19,34.04,14.16,2.79,0.82,0.0,2024-06-11,2024-06-17,2,17.77,74.01,1009.0
3,20240604,Intermountain West DEWS,48.02,34.44,12.99,3.74,0.82,0.0,2024-06-04,2024-06-10,2,17.55,74.92,999.0
4,20240528,Intermountain West DEWS,47.82,34.11,13.51,3.74,0.82,0.0,2024-05-28,2024-06-03,2,18.07,75.63,993.5
5,20240521,Intermountain West DEWS,48.02,35.06,12.42,3.68,0.82,0.0,2024-05-21,2024-05-27,2,16.92,74.22,1008.0
6,20240514,Intermountain West DEWS,46.02,33.0,16.22,3.95,0.82,0.0,2024-05-14,2024-05-20,2,20.99,80.57,943.0
7,20240507,Intermountain West DEWS,44.21,33.58,16.92,4.47,0.82,0.0,2024-05-07,2024-05-13,2,22.21,84.11,926.5
8,20240430,Intermountain West DEWS,46.11,32.89,16.03,4.15,0.82,0.0,2024-04-30,2024-05-06,2,21.0,80.68,942.0
9,20240423,Intermountain West DEWS,45.41,33.27,16.36,4.15,0.82,0.0,2024-04-23,2024-04-29,2,21.33,81.72,936.0
10,20240416,Intermountain West DEWS,44.7,32.67,16.78,3.83,2.01,0.0,2024-04-16,2024-04-22,2,22.62,85.76,916.0
11,20240409,Intermountain West DEWS,46.56,30.72,16.64,4.07,2.01,0.0,2024-04-09,2024-04-15,2,22.72,84.25,923.0
12,20240402,Intermountain West DEWS,46.6,28.82,17.1,5.34,2.14,0.0,2024-04-02,2024-04-08,2,24.58,87.6,908.0
13,20240326,Intermountain West DEWS,42.37,30.34,18.22,6.93,2.14,0.0,2024-03-26,2024-04-01,2,27.29,96.13,845.0
14,20240319,Intermountain West DEWS,42.14,28.98,18.54,7.9,2.43,0.0,2024-03-19,2024-03-25,2,28.87,99.48,815.0
15,20240312,Intermountain West DEWS,40.8,27.76,18.17,10.74,2.53,0.0,2024-03-12,2024-03-18,2,31.44,106.44,772.0
16,20240305,Intermountain West DEWS,40.31,29.13,17.68,10.36,2.53,0.0,2024-03-05,2024-03-11,2,30.57,105.69,773.0
17,20240227,Intermountain West DEWS,39.28,29.54,17.76,10.89,2.53,0.0,2024-02-27,2024-03-04,2,31.18,107.85,765.0
18,20240220,Intermountain West DEWS,39.59,29.67,17.56,10.65,2.53,0.0,2024-02-20,2024-02-26,2,30.74,106.86,770.5
19,20240213,Intermountain West DEWS,38.84,28.72,18.34,11.12,2.74,0.24,2024-02-13,2024-02-19,2,32.44,110.92,751.0
20,20240206,Intermountain West DEWS,36.84,28.6,18.39,11.96,3.67,0.53,2024-02-06,2024-02-12,2,34.55,118.59,713.0
21,20240130,Intermountain West DEWS,33.28,28.21,19.76,14.13,4.1,0.53,2024-01-30,2024-02-05,2,38.52,129.17,650.0
22,20240123,Intermountain West DEWS,32.53,30.55,17.48,13.1,5.81,0.53,2024-01-23,2024-01-29,2,36.92,130.7,639.0
23,20240116,Intermountain West DEWS,34.02,29.08,15.44,14.46,6.22,0.79,2024-01-16,2024-01-22,2,36.91,132.17,631.0
24,20240109,Intermountain West DEWS,33.59,29.19,15.66,14.55,6.22,0.79,2024-01-09,2024-01-15,2,37.22,132.99,626.0
25,20240102,Intermountain West DEWS,37.28,28.22,13.21,14.02,6.48,0.79,2024-01-02,2024-01-08,2,34.5,126.57,675.0
26,20231226,Intermountain West DEWS,39.81,26.57,12.1,13.53,7.21,0.79,2023-12-26,2024-01-01,2,33.63,124.15,688.0
27,20231219,Intermountain West DEWS,41.66,23.58,12.81,13.86,7.29,0.79,2023-12-19,2023-12-25,2,34.75,123.89,692.0
28,20231212,Intermountain West DEWS,42.63,22.55,12.63,14.11,7.29,0.79,2023-12-12,2023-12-18,2,34.82,123.25,698.0
29,20231205,Intermountain West DEWS,41.88,22.7,13.62,13.72,7.29,0.79,2023-12-05,2023-12-11,2,35.42,124.21,687.0
30,20231128,Intermountain West DEWS,41.92,22.55,13.51,13.82,7.42,0.79,2023-11-28,2023-12-04,2,35.54,124.66,682.0
31,20231121,Intermountain West DEWS,44.78,20.21,13.34,13.02,7.7,0.95,2023-11-21,2023-11-27,2,35.01,121.5,701.0
32,20231114,Intermountain West DEWS,45.83,19.16,13.71,13.63,6.73,0.95,2023-11-14,2023-11-20,2,35.02,119.14,711.0
33,20231107,Intermountain West DEWS,48.07,17.06,13.67,14.1,6.16,0.95,2023-11-07,2023-11-13,2,34.88,116.09,722.0
34,20231031,Intermountain West DEWS,49.07,17.92,14.67,11.66,5.73,0.95,2023-10-31,2023-11-06,2,33.01,109.91,757.0
35,20231024,Intermountain West DEWS,48.82,18.37,14.31,11.82,5.73,0.95,2023-10-24,2023-10-30,2,32.81,110.12,754.0
36,20231017,Intermountain West DEWS,49.46,18.68,13.99,11.56,5.53,0.79,2023-10-17,2023-10-23,2,31.87,107.41,768.0
37,20231010,Intermountain West DEWS,49.08,18.82,14.22,11.56,5.53,0.79,2023-10-10,2023-10-16,2,32.1,108.01,763.0
38,20231003,Intermountain West DEWS,50.62,18.63,13.71,10.73,5.53,0.79,2023-10-03,2023-10-09,2,30.76,104.31,782.0
39,20230926,Intermountain West DEWS,52.04,19.11,13.62,9.5,4.94,0.79,2023-09-26,2023-10-02,2,28.85,98.56,824.5
40,20230919,Intermountain West DEWS,53.99,17.53,14.38,8.36,5.73,0.0,2023-09-19,2023-09-25,2,28.47,94.29,862.0
41,20230912,Intermountain West DEWS,52.91,17.96,15.04,12.4,1.69,0.0,2023-09-12,2023-09-18,2,29.13,92.0,870.5
42,20230905,Intermountain West DEWS,52.92,17.96,15.04,12.4,1.69,0.0,2023-09-05,2023-09-11,2,29.13,92.0,870.5
43,20230829,Intermountain West DEWS,50.88,23.09,18.25,7.05,0.73,0.0,2023-08-29,2023-09-04,2,26.03,83.66,931.0
44,20230822,Intermountain West DEWS,51.35,22.43,19.46,6.76,0.0,0.0,2023-08-22,2023-08-28,2,26.22,81.63,937.0
45,20230815,Intermountain West DEWS,50.78,27.08,20.6,1.54,0.0,0.0,2023-08-15,2023-08-21,2,22.14,72.9,1021.0
46,20230808,Intermountain West DEWS,50.6,28.03,19.83,1.54,0.0,0.0,2023-08-08,2023-08-14,2,21.37,72.31,1025.0
47,20230801,Intermountain West DEWS,55.0,34.92,9.18,0.91,0.0,0.0,2023-08-01,2023-08-07,2,10.09,56.01,1107.0
48,20230725,Intermountain West DEWS,58.05,36.44,5.44,0.07,0.0,0.0,2023-07-25,2023-07-31,2,5.51,47.53,1151.0
49,20230718,Intermountain West DEWS,72.18,25.07,2.68,0.07,0.0,0.0,2023-07-18,2023-07-24,2,2.75,30.64,1214.0
50,20230711,Intermountain West DEWS,85.6,11.65,2.68,0.07,0.0,0.0,2023-07-11,2023-07-17,2,2.75,17.22,1260.0
51,20230704,Intermountain West DEWS,80.92,15.21,3.8,0.07,0.0,0.0,2023-07-04,2023-07-10,2,3.87,23.02,1249.0
52,20230627,Intermountain West DEWS,76.99,18.09,4.85,0.07,0.0,0.0,2023-06-27,2023-07-03,2,4.92,28.0,1229.0
53,20230620,Intermountain West DEWS,75.62,18.35,5.34,0.69,0.0,0.0,2023-06-20,2023-06-26,2,6.03,31.1,1208.0
54,20230613,Intermountain West DEWS,71.83,20.98,6.45,0.74,0.0,0.0,2023-06-13,2023-06-19,2,7.19,36.1,1186.0
55,20230606,Intermountain West DEWS,66.99,24.53,7.89,0.59,0.0,0.0,2023-06-06,2023-06-12,2,8.48,42.08,1167.0
56,20230530,Intermountain West DEWS,64.41,25.42,9.05,1.07,0.05,0.0,2023-05-30,2023-06-05,2,10.17,46.93,1153.0
57,20230523,Intermountain West DEWS,63.37,26.98,8.16,1.31,0.16,0.02,2023-05-23,2023-05-29,2,9.65,47.97,1147.0
58,20230516,Intermountain West DEWS,60.24,28.48,9.69,1.32,0.19,0.07,2023-05-16,2023-05-22,2,11.27,52.93,1125.0
59,20230509,Intermountain West DEWS,55.66,27.21,12.71,3.89,0.46,0.07,2023-05-09,2023-05-15,2,17.13,66.49,1046.0
60,20230502,Intermountain West DEWS,56.21,25.8,12.82,4.63,0.46,0.07,2023-05-02,2023-05-08,2,17.98,67.52,1042.0
61,20230425,Intermountain West DEWS,56.48,22.28,14.61,5.33,1.2,0.1,2023-04-25,2023-05-01,2,21.24,72.79,1022.0
62,20230418,Intermountain West DEWS,54.94,22.97,15.38,5.41,1.2,0.1,2023-04-18,2023-04-24,2,22.09,75.26,997.0
63,20230411,Intermountain West DEWS,56.02,20.4,16.87,5.41,1.2,0.1,2023-04-11,2023-04-17,2,23.58,75.67,992.0
64,20230404,Intermountain West DEWS,52.85,21.65,18.91,5.81,0.68,0.1,2023-04-04,2023-04-10,2,25.5,80.12,947.0
65,20230328,Intermountain West DEWS,50.25,18.78,23.24,6.95,0.68,0.1,2023-03-28,2023-04-03,2,30.97,89.33,896.0
66,20230321,Intermountain West DEWS,47.31,17.95,24.53,9.3,0.87,0.04,2023-03-21,2023-03-27,2,34.74,98.59,821.0
67,20230314,Intermountain West DEWS,44.78,18.33,25.35,10.64,0.87,0.04,2023-03-14,2023-03-20,2,36.9,104.63,779.0
68,20230307,Intermountain West DEWS,43.65,18.44,26.47,10.36,1.05,0.04,2023-03-07,2023-03-13,2,37.92,106.86,770.5
69,20230228,Intermountain West DEWS,42.52,16.72,27.16,12.16,1.41,0.04,2023-02-28,2023-03-06,2,40.77,113.36,737.0
70,20230221,Intermountain West DEWS,39.46,16.1,29.54,13.45,1.41,0.04,2023-02-21,2023-02-27,2,44.44,121.37,703.0
71,20230214,Intermountain West DEWS,38.18,17.09,28.76,14.53,1.41,0.04,2023-02-14,2023-02-20,2,44.74,124.04,689.0
72,20230207,Intermountain West DEWS,32.17,22.96,29.3,14.12,1.41,0.04,2023-02-07,2023-02-13,2,44.87,129.76,645.0
73,20230131,Intermountain West DEWS,33.15,22.43,22.58,17.44,4.39,0.01,2023-01-31,2023-02-06,2,44.42,137.52,605.0
74,20230124,Intermountain West DEWS,31.17,24.24,22.75,17.33,4.5,0.01,2023-01-24,2023-01-30,2,44.59,139.78,602.0
75,20230117,Intermountain West DEWS,28.39,26.12,21.72,18.27,5.49,0.01,2023-01-17,2023-01-23,2,45.49,146.38,579.0
76,20230110,Intermountain West DEWS,23.62,28.25,22.7,18.73,6.69,0.01,2023-01-10,2023-01-16,2,48.13,156.65,531.0
77,20230103,Intermountain West DEWS,19.37,30.46,22.5,20.8,6.51,0.35,2023-01-03,2023-01-09,2,50.16,165.65,505.0
78,20221227,Intermountain West DEWS,13.29,33.6,20.58,24.68,7.38,0.47,2022-12-27,2023-01-02,2,53.11,180.67,443.0
79,20221220,Intermountain West DEWS,13.85,32.81,20.8,24.68,7.38,0.47,2022-12-20,2022-12-26,2,53.33,180.32,444.0
80,20221213,Intermountain West DEWS,13.86,32.62,20.98,24.43,7.63,0.48,2022-12-13,2022-12-19,2,53.52,180.79,441.0
81,20221206,Intermountain West DEWS,13.15,32.14,21.39,24.15,8.68,0.48,2022-12-06,2022-12-12,2,54.7,184.49,435.0
82,20221129,Intermountain West DEWS,10.71,32.41,25.03,20.14,11.22,0.48,2022-11-29,2022-12-05,2,56.87,190.17,417.0
83,20221122,Intermountain West DEWS,9.16,33.28,24.63,21.22,11.22,0.48,2022-11-22,2022-11-28,2,57.55,193.48,411.0
84,20221115,Intermountain West DEWS,9.31,33.31,24.8,21.11,10.98,0.48,2022-11-15,2022-11-21,2,57.37,192.56,412.0
85,20221108,Intermountain West DEWS,8.39,34.61,24.04,21.14,11.34,0.48,2022-11-08,2022-11-14,2,57.0,193.87,410.0
86,20221101,Intermountain West DEWS,8.39,35.4,25.75,19.44,10.54,0.48,2022-11-01,2022-11-07,2,56.21,189.78,419.0
87,20221025,Intermountain West DEWS,8.1,35.05,26.04,19.52,10.81,0.48,2022-10-25,2022-10-31,2,56.85,191.33,415.0
88,20221018,Intermountain West DEWS,9.31,35.32,25.47,18.63,10.56,0.71,2022-10-18,2022-10-24,2,55.37,187.94,425.0
89,20221011,Intermountain West DEWS,9.83,33.09,25.9,19.9,10.56,0.71,2022-10-11,2022-10-17,2,57.07,190.38,416.0
90,20221004,Intermountain West DEWS,10.17,30.2,27.82,19.64,11.37,0.8,2022-10-04,2022-10-10,2,59.63,194.24,408.0
91,20220927,Intermountain West DEWS,6.88,31.78,29.02,19.98,11.53,0.8,2022-09-27,2022-10-03,2,61.33,199.88,401.5
92,20220920,Intermountain West DEWS,6.68,28.32,29.85,22.73,11.62,0.8,2022-09-20,2022-09-26,2,65.0,206.69,389.0
93,20220913,Intermountain West DEWS,6.44,27.48,29.99,24.12,11.17,0.8,2022-09-13,2022-09-19,2,66.08,208.5,387.0
94,20220906,Intermountain West DEWS,5.7,26.26,30.73,24.86,11.65,0.8,2022-09-06,2022-09-12,2,68.04,212.9,379.0
95,20220830,Intermountain West DEWS,5.11,27.6,29.97,23.07,13.44,0.8,2022-08-30,2022-09-05,2,67.28,214.51,377.0
96,20220823,Intermountain West DEWS,5.01,23.69,31.19,25.56,13.75,0.8,2022-08-23,2022-08-29,2,71.3,221.75,370.0
97,20220816,Intermountain West DEWS,4.01,20.84,33.2,26.64,14.43,0.88,2022-08-16,2022-08-22,2,75.15,229.28,352.0
98,20220809,Intermountain West DEWS,3.49,17.95,28.82,29.02,19.6,1.11,2022-08-09,2022-08-15,2,78.55,246.6,330.0
99,20220802,Intermountain West DEWS,2.13,17.72,28.47,29.28,20.7,1.7,2022-08-02,2022-08-08,2,80.15,253.8,326.0
100,20220726,Intermountain West DEWS,2.88,11.47,31.18,31.28,21.1,2.08,2022-07-26,2022-08-01,2,85.64,262.47,305.0
101,20220719,Intermountain West DEWS,2.92,9.48,28.07,34.43,22.78,2.31,2022-07-19,2022-07-25,2,87.59,271.58,273.0
102,20220712,Intermountain West DEWS,2.82,10.0,29.74,32.76,22.37,2.31,2022-07-12,2022-07-18,2,87.18,268.79,287.0
103,20220705,Intermountain West DEWS,3.08,9.89,23.53,35.26,25.92,2.32,2022-07-05,2022-07-11,2,87.03,278.01,259.0
104,20220628,Intermountain West DEWS,2.99,9.28,23.19,35.84,26.33,2.36,2022-06-28,2022-07-04,2,87.72,280.3,256.0
105,20220621,Intermountain West DEWS,1.91,10.38,21.81,29.01,30.2,6.7,2022-06-21,2022-06-27,2,87.72,295.33,221.0
106,20220614,Intermountain West DEWS,1.8,10.26,23.01,27.32,31.27,6.33,2022-06-14,2022-06-20,2,87.93,294.97,222.0
107,20220607,Intermountain West DEWS,1.07,9.56,24.5,27.8,31.93,5.14,2022-06-07,2022-06-13,2,89.37,295.38,220.0
108,20220531,Intermountain West DEWS,0.25,5.28,26.25,32.69,31.42,4.12,2022-05-31,2022-06-06,2,94.48,302.13,199.0
109,20220524,Intermountain West DEWS,0.0,4.37,21.93,36.89,32.33,4.49,2022-05-24,2022-05-30,2,95.64,310.67,164.0
110,20220517,Intermountain West DEWS,0.0,3.52,24.51,40.11,28.45,3.42,2022-05-17,2022-05-23,2,96.49,303.77,191.0
111,20220510,Intermountain West DEWS,0.0,3.91,26.01,45.05,23.74,1.29,2022-05-10,2022-05-16,2,96.09,292.49,231.0
112,20220503,Intermountain West DEWS,0.0,3.75,27.48,46.23,21.39,1.14,2022-05-03,2022-05-09,2,96.24,288.66,242.0
113,20220426,Intermountain West DEWS,0.0,4.3,26.24,47.76,20.8,0.9,2022-04-26,2022-05-02,2,95.7,287.76,246.0
114,20220419,Intermountain West DEWS,0.0,6.95,26.71,44.94,20.89,0.51,2022-04-19,2022-04-25,2,93.05,281.3,255.0
115,20220412,Intermountain West DEWS,0.0,7.84,26.86,46.7,18.09,0.51,2022-04-12,2022-04-18,2,92.16,276.57,264.0
116,20220405,Intermountain West DEWS,0.0,7.95,27.02,46.78,18.0,0.25,2022-04-05,2022-04-11,2,92.05,275.58,267.0
117,20220329,Intermountain West DEWS,0.0,10.7,31.53,39.52,17.99,0.25,2022-03-29,2022-04-04,2,89.29,265.53,293.0
118,20220322,Intermountain West DEWS,0.0,10.7,31.83,39.93,17.29,0.25,2022-03-22,2022-03-28,2,89.3,264.56,300.5
119,20220315,Intermountain West DEWS,0.0,8.68,28.07,45.52,17.48,0.25,2022-03-15,2022-03-21,2,91.32,272.55,271.0
120,20220308,Intermountain West DEWS,0.0,8.68,28.12,47.59,15.36,0.25,2022-03-08,2022-03-14,2,91.32,270.38,278.0
121,20220301,Intermountain West DEWS,0.0,8.66,28.13,46.93,16.16,0.12,2022-03-01,2022-03-07,2,91.34,270.95,276.0
122,20220222,Intermountain West DEWS,0.0,13.61,23.76,46.91,15.68,0.04,2022-02-22,2022-02-28,2,86.39,264.78,297.0
123,20220215,Intermountain West DEWS,0.0,13.61,23.55,47.51,15.29,0.04,2022-02-15,2022-02-21,2,86.39,264.6,299.0
124,20220208,Intermountain West DEWS,0.0,14.41,22.86,47.83,14.86,0.04,2022-02-08,2022-02-14,2,85.59,263.26,303.0
125,20220201,Intermountain West DEWS,0.0,14.41,22.6,46.68,16.27,0.04,2022-02-01,2022-02-07,2,85.59,264.93,296.0
126,20220125,Intermountain West DEWS,0.0,14.05,22.55,46.73,16.63,0.04,2022-01-25,2022-01-31,2,85.95,266.06,292.0
127,20220118,Intermountain West DEWS,0.0,14.16,22.56,47.31,15.97,0.0,2022-01-18,2022-01-24,2,85.84,265.09,295.0
128,20220111,Intermountain West DEWS,0.0,14.16,22.81,45.56,17.46,0.0,2022-01-11,2022-01-17,2,85.83,266.3,291.0
129,20220104,Intermountain West DEWS,0.0,12.46,23.58,45.35,18.6,0.0,2022-01-04,2022-01-10,2,87.53,270.07,279.0
130,20211228,Intermountain West DEWS,0.0,10.41,26.39,37.13,26.06,0.0,2021-12-28,2022-01-03,2,89.58,278.82,257.0
131,20211221,Intermountain West DEWS,0.0,6.48,24.59,39.76,29.15,0.01,2021-12-21,2021-12-27,2,93.51,291.59,233.0
132,20211214,Intermountain West DEWS,0.0,6.7,26.99,37.78,28.52,0.01,2021-12-14,2021-12-20,2,93.3,288.15,243.0
133,20211207,Intermountain West DEWS,0.0,6.48,26.41,38.58,26.74,1.79,2021-12-07,2021-12-13,2,93.52,290.95,237.0
134,20211130,Intermountain West DEWS,0.0,7.72,28.76,36.09,25.64,1.79,2021-11-30,2021-12-06,2,92.28,285.02,251.0
135,20211123,Intermountain West DEWS,0.0,10.22,29.92,35.48,22.58,1.79,2021-11-23,2021-11-29,2,89.77,275.77,266.0
136,20211116,Intermountain West DEWS,0.57,12.19,28.09,36.01,21.34,1.79,2021-11-16,2021-11-22,2,87.23,270.71,277.0
137,20211109,Intermountain West DEWS,1.0,11.98,29.01,34.27,21.95,1.79,2021-11-09,2021-11-15,2,87.02,269.56,282.0
138,20211102,Intermountain West DEWS,1.01,11.97,29.69,33.44,21.29,2.6,2021-11-02,2021-11-08,2,87.02,269.83,280.0
139,20211026,Intermountain West DEWS,1.01,11.96,29.99,31.08,22.91,3.05,2021-10-26,2021-11-01,2,87.03,272.07,272.0
140,20211019,Intermountain West DEWS,1.18,13.32,28.45,28.7,25.3,3.05,2021-10-19,2021-10-25,2,85.5,272.77,270.0
141,20211012,Intermountain West DEWS,1.2,13.31,26.54,28.78,26.48,3.68,2021-10-12,2021-10-18,2,85.48,277.05,261.0
142,20211005,Intermountain West DEWS,2.35,14.05,24.57,25.56,29.44,4.03,2021-10-05,2021-10-11,2,83.6,277.78,260.0
143,20210928,Intermountain West DEWS,3.05,14.91,23.09,24.92,29.44,4.6,2021-09-28,2021-10-04,2,82.05,276.61,263.0
144,20210921,Intermountain West DEWS,4.0,13.84,24.96,24.02,28.48,4.69,2021-09-21,2021-09-27,2,82.15,273.19,269.0
145,20210914,Intermountain West DEWS,8.05,10.91,23.92,23.58,28.79,4.74,2021-09-14,2021-09-20,2,81.03,268.35,288.0
146,20210907,Intermountain West DEWS,11.1,8.29,23.71,23.37,28.79,4.74,2021-09-07,2021-09-13,2,80.61,264.68,298.0
147,20210831,Intermountain West DEWS,11.55,5.5,23.04,25.48,28.78,5.65,2021-08-31,2021-09-06,2,82.95,271.39,275.0
148,20210824,Intermountain West DEWS,11.52,5.72,22.02,25.54,25.99,9.22,2021-08-24,2021-08-30,2,82.77,276.44,265.0
149,20210817,Intermountain West DEWS,11.41,5.71,20.92,19.09,30.39,12.48,2021-08-17,2021-08-23,2,82.88,288.78,241.0
150,20210810,Intermountain West DEWS,12.76,4.69,12.97,25.41,30.89,13.29,2021-08-10,2021-08-16,2,82.56,296.87,214.0
151,20210803,Intermountain West DEWS,13.57,3.86,12.54,24.33,31.65,14.05,2021-08-03,2021-08-09,2,82.57,298.78,209.0
152,20210727,Intermountain West DEWS,13.47,3.11,10.12,21.87,33.95,17.48,2021-07-27,2021-08-02,2,83.42,312.16,155.0
153,20210720,Intermountain West DEWS,13.03,3.94,8.9,12.76,30.69,30.68,2021-07-20,2021-07-26,2,83.03,336.18,89.0
154,20210713,Intermountain West DEWS,13.06,4.7,8.73,13.89,23.72,35.91,2021-07-13,2021-07-19,2,82.25,338.26,85.0
155,20210706,Intermountain West DEWS,13.07,4.57,8.72,15.65,22.29,35.71,2021-07-06,2021-07-12,2,82.37,336.67,86.5
156,20210629,Intermountain West DEWS,13.05,4.55,9.14,15.04,22.38,35.84,2021-06-29,2021-07-05,2,82.4,336.67,86.5
157,20210622,Intermountain West DEWS,13.03,5.7,10.4,14.34,20.47,36.06,2021-06-22,2021-06-28,2,81.27,331.7,93.0
158,20210615,Intermountain West DEWS,14.33,5.65,11.96,12.58,19.69,35.78,2021-06-15,2021-06-21,2,80.01,324.97,109.0
159,20210608,Intermountain West DEWS,14.73,5.4,12.71,11.85,19.53,35.78,2021-06-08,2021-06-14,2,79.87,323.39,115.0
160,20210601,Intermountain West DEWS,13.91,6.09,12.84,12.74,19.23,35.19,2021-06-01,2021-06-07,2,80.0,322.86,116.0
161,20210525,Intermountain West DEWS,9.99,9.63,13.09,12.87,19.23,35.19,2021-05-25,2021-05-31,2,80.38,327.29,102.0
162,20210518,Intermountain West DEWS,7.6,9.81,13.68,13.9,20.26,34.75,2021-05-18,2021-05-24,2,82.59,333.66,91.0
163,20210511,Intermountain West DEWS,5.2,4.77,18.74,15.66,20.21,35.42,2021-05-11,2021-05-17,2,90.03,347.17,73.0
164,20210504,Intermountain West DEWS,2.93,5.78,15.7,19.31,21.17,35.12,2021-05-04,2021-05-10,2,91.3,355.39,59.0
165,20210427,Intermountain West DEWS,1.42,4.53,16.52,20.82,21.52,35.19,2021-04-27,2021-05-03,2,94.05,362.06,53.0
166,20210420,Intermountain West DEWS,1.68,4.5,17.11,20.27,21.61,34.82,2021-04-20,2021-04-26,2,93.81,360.07,54.0
167,20210413,Intermountain West DEWS,0.58,5.59,15.69,19.07,24.26,34.82,2021-04-13,2021-04-19,2,93.84,365.32,46.0
168,20210406,Intermountain West DEWS,0.31,7.6,14.08,18.92,25.01,34.08,2021-04-06,2021-04-12,2,92.09,362.96,50.0
169,20210330,Intermountain West DEWS,0.46,7.75,13.8,18.9,25.01,34.08,2021-03-30,2021-04-05,2,91.79,362.49,52.0
170,20210323,Intermountain West DEWS,0.79,7.35,13.69,18.9,25.1,34.18,2021-03-23,2021-03-29,2,91.87,362.73,51.0
171,20210316,Intermountain West DEWS,0.48,6.88,12.3,19.87,26.51,33.96,2021-03-16,2021-03-22,2,92.64,366.93,45.0
172,20210309,Intermountain West DEWS,0.48,2.98,9.58,22.19,30.63,34.15,2021-03-09,2021-03-15,2,96.55,381.98,29.0
173,20210302,Intermountain West DEWS,0.48,1.98,10.52,22.15,30.64,34.24,2021-03-02,2021-03-08,2,97.55,383.23,28.0
174,20210223,Intermountain West DEWS,0.47,1.98,10.1,22.04,31.12,34.28,2021-02-23,2021-03-01,2,97.54,384.18,27.0
175,20210216,Intermountain West DEWS,0.47,1.66,9.52,22.0,31.64,34.71,2021-02-16,2021-02-22,2,97.87,386.81,25.0
176,20210209,Intermountain West DEWS,0.47,1.66,8.55,19.52,31.16,38.65,2021-02-09,2021-02-15,2,97.88,395.21,20.0
177,20210202,Intermountain West DEWS,0.47,1.66,8.3,19.31,31.61,38.65,2021-02-02,2021-02-08,2,97.87,395.88,18.5
178,20210126,Intermountain West DEWS,0.9,1.27,7.98,18.06,31.94,39.86,2021-01-26,2021-02-01,2,97.84,398.47,16.0
179,20210119,Intermountain West DEWS,0.9,1.47,10.19,15.05,28.19,44.21,2021-01-19,2021-01-25,2,97.64,400.81,12.0
180,20210112,Intermountain West DEWS,0.91,1.6,10.17,14.92,28.8,43.6,2021-01-12,2021-01-18,2,97.49,399.9,14.0
181,20210105,Intermountain West DEWS,0.91,1.76,9.4,14.96,29.38,43.6,2021-01-05,2021-01-11,2,97.34,400.96,7.0
182,20201229,Intermountain West DEWS,0.91,1.77,9.39,14.96,29.38,43.6,2020-12-29,2021-01-04,2,97.33,400.95,9.0
183,20201222,Intermountain West DEWS,0.91,1.77,9.39,14.96,29.38,43.6,2020-12-22,2020-12-28,2,97.33,400.95,9.0
184,20201215,Intermountain West DEWS,0.91,1.77,9.39,14.96,29.38,43.6,2020-12-15,2020-12-21,2,97.33,400.95,9.0
185,20201208,Intermountain West DEWS,0.91,1.77,9.07,15.53,27.56,45.16,2020-12-08,2020-12-14,2,97.32,402.54,5.0
186,20201201,Intermountain West DEWS,0.9,1.78,9.49,15.45,27.43,44.95,2020-12-01,2020-12-07,2,97.32,401.58,6.0
187,20201124,Intermountain West DEWS,0.9,1.77,9.84,16.07,32.17,39.24,2020-11-24,2020-11-30,2,97.32,394.54,22.0
188,20201117,Intermountain West DEWS,0.9,1.64,10.54,18.39,42.83,25.7,2020-11-17,2020-11-23,2,97.46,377.71,31.0
189,20201110,Intermountain West DEWS,0.63,1.91,10.31,19.49,49.0,18.65,2020-11-10,2020-11-16,2,97.45,370.25,43.0
190,20201103,Intermountain West DEWS,0.63,1.91,12.99,17.05,53.04,14.39,2020-11-03,2020-11-09,2,97.47,363.15,49.0
191,20201027,Intermountain West DEWS,0.63,1.91,12.18,17.39,54.16,13.73,2020-10-27,2020-11-02,2,97.46,363.73,48.0
192,20201020,Intermountain West DEWS,0.63,1.55,12.22,17.1,54.76,13.73,2020-10-20,2020-10-26,2,97.81,364.98,47.0
193,20201013,Intermountain West DEWS,0.63,1.55,12.51,23.19,52.46,9.65,2020-10-13,2020-10-19,2,97.81,354.23,60.0
194,20201006,Intermountain West DEWS,0.63,2.17,13.99,22.1,51.46,9.65,2020-10-06,2020-10-12,2,97.2,350.54,71.0
195,20200929,Intermountain West DEWS,0.63,3.69,15.1,24.02,52.47,4.1,2020-09-29,2020-10-05,2,95.69,336.33,88.0
196,20200922,Intermountain West DEWS,0.67,4.98,16.02,27.24,49.15,1.95,2020-09-22,2020-09-28,2,94.36,325.09,108.0
197,20200915,Intermountain West DEWS,1.42,4.97,15.05,27.95,49.45,1.16,2020-09-15,2020-09-21,2,93.61,322.52,119.0
198,20200908,Intermountain West DEWS,1.42,5.2,14.09,27.27,51.37,0.64,2020-09-08,2020-09-14,2,93.37,323.87,113.0
199,20200901,Intermountain West DEWS,1.7,6.18,16.68,40.9,34.46,0.09,2020-09-01,2020-09-07,2,92.13,300.53,205.0
200,20200825,Intermountain West DEWS,1.81,6.27,18.63,41.26,31.96,0.09,2020-08-25,2020-08-31,2,91.94,295.6,219.0
201,20200818,Intermountain West DEWS,1.91,8.52,25.26,49.48,14.83,0.0,2020-08-18,2020-08-24,2,89.57,266.8,290.0
202,20200811,Intermountain West DEWS,3.76,9.27,39.91,34.06,12.99,0.0,2020-08-11,2020-08-17,2,86.96,243.23,334.0
203,20200804,Intermountain West DEWS,4.4,11.97,38.51,34.01,11.11,0.0,2020-08-04,2020-08-10,2,83.63,235.46,346.0
204,20200728,Intermountain West DEWS,6.87,19.01,32.43,30.74,10.94,0.0,2020-07-28,2020-08-03,2,74.11,219.85,372.0
205,20200721,Intermountain West DEWS,7.52,26.61,32.53,23.63,9.71,0.0,2020-07-21,2020-07-27,2,65.87,201.4,400.0
206,20200714,Intermountain West DEWS,19.85,27.84,22.83,18.82,10.65,0.0,2020-07-14,2020-07-20,2,52.3,172.56,473.0
207,20200707,Intermountain West DEWS,27.37,22.27,21.89,18.83,9.65,0.0,2020-07-07,2020-07-13,2,50.37,161.14,518.0
208,20200630,Intermountain West DEWS,31.55,17.56,23.25,18.2,9.14,0.31,2020-06-30,2020-07-06,2,50.9,156.77,530.0
209,20200623,Intermountain West DEWS,31.45,17.55,27.3,14.5,9.2,0.0,2020-06-23,2020-06-29,2,51.0,152.45,550.0
210,20200616,Intermountain West DEWS,31.64,20.22,24.76,14.18,9.2,0.0,2020-06-16,2020-06-22,2,48.14,149.08,568.0
211,20200609,Intermountain West DEWS,32.84,24.57,20.88,14.38,7.33,0.0,2020-06-09,2020-06-15,2,42.59,138.79,604.0
212,20200602,Intermountain West DEWS,38.18,22.84,17.15,16.25,5.58,0.0,2020-06-02,2020-06-08,2,38.98,128.21,660.0
213,20200526,Intermountain West DEWS,48.4,12.26,20.86,13.34,5.14,0.0,2020-05-26,2020-06-01,2,39.34,114.56,730.0